Location: ??????
(38.3184°N, 23.6932°E)
Time: 18:31:04
(UTC+00:00)

Cosmos 1727 Rocket - Pass Details

Date: 02 June 2022
Orbit: 961 x 996 km, 82.9° (Epoch: 28 June)

Event Time Altitude Azimuth Distance (km) Brightness Sun altitude
Rises 02:21:22 0° 163° (SSE) 3,675 6.8 -7.7°
Reaches altitude 10° 02:24:01 10° 156° (SSE) 2,736 6.2 -7.3°
Maximum altitude 02:29:48 40° 89° (E) 1,419 5.5 -6.4°
Drops below altitude 10° 02:35:39 10° 22° (NNE) 2,767 7.4 -5.4°
Sets 02:38:19 0° 15° (NNE) 3,722 7.9 -5.0°
